Location: Newark
(45.4422°N, 16.2769°E)
Time: 01:30:06
(UTC+00:00)

Courier 1B Rocket - Pass Details

Date: 06 December 2019
Orbit: 920 x 1202 km, 28.2° (Epoch: 23 January)

Event Time Altitude Azimuth Distance (km) Brightness Sun altitude
Rises 10:26:25 0° 244° (WSW) 3,554 8.2 21.9°
Reaches altitude 10° 10:30:42 10° 217° (SW) 2,602 8.1 22.0°
Maximum altitude 10:33:14 13° 192° (SSW) 2,419 8.9 22.0°
Drops below altitude 10° 10:35:46 10° 168° (SSE) 2,615 9.2 22.0°
Sets 10:40:06 0° 141° (SE) 3,590 8.8 22.1°
